Date Time,Air Temp,Sky Temp,Clarity,Light Level,Rain Sensor,Readings
2010-07-22 00:00:11,25.4,-4.4,29.8,0.1,2.3,112
2010-07-22 00:05:11,25.5,-7.5,32.9,0.1,2.3,111
2010-07-22 00:10:11,25.4,-8.0,33.4,0.1,2.3,112
2010-07-22 00:15:11,24.9,-7.9,32.8,0.0,2.3,111
2010-07-22 00:20:11,25.2,-7.4,32.6,0.0,2.3,111
2010-07-22 00:25:11,25.2,-5.7,30.9,0.0,2.3,112
2010-07-22 00:30:11,25.2,-4.5,29.7,0.0,2.3,111
2010-07-22 00:35:11,25.2,-5.3,30.5,0.0,2.3,112
2010-07-22 00:40:11,25.2,-1.9,27.1,0.0,2.3,112
2010-07-22 00:45:11,24.6,-0.7,25.3,0.0,2.2,111
2010-07-22 00:50:11,25.1,-7.6,32.7,0.0,2.3,112
2010-07-22 00:55:11,25.1,-5.4,30.5,0.0,2.3,112
2010-07-22 01:00:11,25.2,-6.0,31.1,0.0,2.3,111
2010-07-22 01:05:11,25.1,-4.2,29.3,0.0,2.3,112
2010-07-22 01:10:11,25.1,-4.8,29.9,0.0,2.3,111
2010-07-22 01:15:11,25.2,1.2,23.9,0.0,2.3,112
2010-07-22 01:20:11,25.2,1.0,24.2,0.0,2.3,112
2010-07-22 01:25:11,25.1,3.3,21.8,0.0,2.2,111
2010-07-22 01:30:11,23.6,3.9,19.6,0.0,2.3,112
2010-07-22 01:35:11,24.6,-1.8,26.4,0.0,2.3,111
2010-07-22 01:40:11,25.1,-7.7,32.8,0.0,2.3,112
2010-07-22 01:45:11,25.1,-8.3,33.4,0.0,2.3,112
2010-07-22 01:50:11,25.1,-7.5,32.6,0.0,2.3,111
2010-07-22 01:55:11,25.0,-8.2,33.2,0.0,2.3,111
2010-07-22 02:00:11,25.0,-8.1,33.1,0.0,2.3,112
2010-07-22 02:05:11,24.9,-7.9,32.8,0.0,2.3,112
2010-07-22 02:10:11,24.9,-7.7,32.7,0.0,2.3,111
2010-07-22 02:15:11,25.0,-5.4,30.4,0.0,2.3,112
2010-07-22 02:20:11,25.0,-5.5,30.5,0.0,2.3,112
2010-07-22 02:25:11,25.1,-5.5,30.6,0.0,2.3,112
2010-07-22 02:30:11,25.1,-6.9,32.0,0.0,2.3,111
2010-07-22 02:35:11,25.0,-8.2,33.2,0.0,2.3,112
2010-07-22 02:40:11,25.0,-7.5,32.4,0.0,2.3,111
2010-07-22 02:45:11,24.9,-6.3,31.2,0.0,2.3,112
2010-07-22 02:50:11,24.9,-8.6,33.5,0.0,2.3,112
2010-07-22 02:55:11,24.9,-8.5,33.4,0.0,2.3,111
2010-07-22 03:00:11,24.9,-8.3,33.2,0.0,2.3,112
2010-07-22 03:05:11,24.9,-8.1,33.0,0.0,2.3,112
2010-07-22 03:10:11,24.8,-7.3,32.1,0.0,2.3,111
2010-07-22 03:15:11,24.8,-8.3,33.1,0.0,2.3,112
2010-07-22 03:20:11,24.8,-8.4,33.2,0.0,2.3,112
2010-07-22 03:25:11,24.8,-8.5,33.3,0.0,2.3,112
2010-07-22 03:30:11,24.7,-8.5,33.2,0.0,2.3,112
2010-07-22 03:35:11,24.7,-8.3,32.9,0.0,2.3,112
2010-07-22 03:40:11,24.6,-8.1,32.7,0.0,2.3,111
2010-07-22 03:45:11,24.6,-8.0,32.6,0.1,2.3,112
2010-07-22 03:50:11,24.6,-8.6,33.2,0.1,2.3,112
2010-07-22 03:55:11,24.5,-8.7,33.2,0.2,2.3,112
2010-07-22 04:00:11,24.5,-8.4,32.9,0.3,2.3,112
2010-07-22 04:05:11,24.5,-8.6,33.1,0.4,2.3,111
2010-07-22 04:10:11,24.4,-8.5,32.9,0.6,2.3,112
2010-07-22 04:15:11,24.4,-7.9,32.4,0.9,2.3,112
2010-07-22 04:20:11,24.4,-7.3,31.8,1.4,2.3,111
2010-07-22 04:25:11,24.5,-6.4,30.9,2.2,2.3,112
2010-07-22 04:30:11,24.5,-5.7,30.2,3.6,2.3,112
2010-07-22 04:35:11,24.5,-5.3,29.8,5.9,2.3,112
2010-07-22 04:40:11,24.5,-7.7,32.2,8.9,2.3,111
2010-07-22 04:45:11,24.5,-8.1,32.6,12.8,2.3,111
2010-07-22 04:50:11,24.5,-8.2,32.7,17.2,2.3,112
2010-07-22 04:55:11,24.5,-7.9,32.4,21.5,2.3,112
2010-07-22 05:00:11,24.6,-7.7,32.3,25.1,2.3,111
2010-07-22 05:05:11,24.1,-7.5,31.5,27.5,2.3,111
2010-07-22 05:10:11,24.6,-5.6,30.2,28.9,2.3,112
2010-07-22 05:15:11,24.8,-1.3,26.0,29.8,2.3,112
2010-07-22 05:20:11,24.9,-1.1,26.0,30.5,2.3,111
2010-07-22 05:25:11,25.1,0.0,25.1,31.1,2.3,112
2010-07-22 05:30:11,24.5,5.2,19.2,31.2,2.3,111
2010-07-22 05:35:11,23.1,-0.8,23.9,31.6,2.3,112
2010-07-22 05:40:11,24.7,-2.9,27.7,31.8,2.3,111
2010-07-22 05:45:11,25.2,-4.9,30.1,31.9,2.3,112
2010-07-22 05:50:11,25.3,-6.2,31.5,32.0,2.3,111
2010-07-22 05:55:11,25.4,0.1,25.3,32.1,2.3,112
2010-07-22 06:00:11,25.5,-1.0,26.5,32.1,2.3,112
2010-07-22 06:05:11,25.6,-1.5,27.1,32.1,2.3,111
2010-07-22 06:10:11,25.7,-4.5,30.2,32.2,2.3,112
2010-07-22 06:15:11,25.9,-0.9,26.8,32.2,2.3,111
2010-07-22 06:20:11,25.2,5.1,20.1,32.4,1.9,111
2010-07-22 06:25:11,25.5,3.2,22.3,32.3,2.0,112
2010-07-22 06:30:11,26.4,-0.9,27.3,32.3,1.6,111
2010-07-22 06:35:11,26.6,-2.4,29.0,32.3,1.3,112
2010-07-22 06:40:11,27.0,-6.0,32.9,32.3,1.1,112
2010-07-22 06:45:11,27.2,-6.2,33.4,32.3,1.2,111
2010-07-22 06:50:11,27.4,-6.2,33.6,32.3,1.3,112
2010-07-22 06:55:11,27.5,-7.1,34.7,32.3,1.4,112
2010-07-22 07:00:11,27.6,-6.8,34.4,32.3,1.5,111
2010-07-22 07:05:11,27.8,-6.0,33.7,32.4,1.5,112
2010-07-22 07:10:11,27.8,-6.2,34.0,32.4,1.6,111
2010-07-22 07:15:11,27.9,-6.0,33.8,32.4,1.6,112
2010-07-22 07:20:11,28.0,-4.5,32.5,32.4,1.7,111
2010-07-22 07:25:11,28.1,-0.5,28.6,32.4,1.8,112
2010-07-22 07:30:11,28.3,1.0,27.2,32.5,1.8,111
2010-07-22 07:35:11,28.2,-3.1,31.2,32.4,1.8,112
2010-07-22 07:40:11,27.8,-4.1,32.0,32.4,1.7,111
2010-07-22 07:45:11,27.7,0.9,26.7,32.5,1.6,111
2010-07-22 07:50:11,26.7,5.7,21.0,32.5,1.5,112
2010-07-22 07:55:11,27.0,-2.2,29.2,32.4,1.5,112
2010-07-22 08:00:11,27.6,0.4,27.2,32.5,1.6,111
2010-07-22 08:05:11,28.0,2.6,25.4,32.5,1.7,112
2010-07-22 08:10:11,28.6,3.0,25.5,32.5,2.1,111
2010-07-22 08:15:11,28.7,6.3,22.3,32.5,2.2,111
2010-07-22 08:20:11,26.6,9.6,17.0,32.5,2.0,112
2010-07-22 08:25:11,25.6,10.4,15.2,32.5,1.8,112
2010-07-22 08:30:11,25.0,10.0,15.0,32.4,2.2,111
2010-07-22 08:35:11,24.5,10.7,13.7,32.4,1.4,111
2010-07-22 08:40:11,24.1,8.4,15.6,32.5,1.1,112
2010-07-22 08:45:11,23.6,10.2,13.3,32.5,0.9,111
2010-07-22 08:50:11,23.2,11.1,12.2,32.5,0.8,111
2010-07-22 08:55:11,23.2,10.8,12.3,32.5,1.0,112
2010-07-22 09:00:11,23.2,10.5,12.6,32.5,1.2,111
2010-07-22 09:05:11,23.3,11.1,12.2,32.5,2.4,111
2010-07-22 09:10:11,23.2,10.5,12.8,32.5,1.7,112
2010-07-22 09:15:11,23.1,9.5,13.6,32.5,1.2,111
2010-07-22 09:20:11,23.1,10.0,13.2,32.5,1.1,111
2010-07-22 09:25:11,23.2,9.3,13.9,32.3,9.6,112
2010-07-22 09:30:11,22.6,13.1,9.5,32.3,28.7,111
2010-07-22 09:35:11,21.8,16.1,5.7,32.4,27.7,112
2010-07-22 09:40:11,21.5,16.2,5.2,32.1,28.2,111
2010-07-22 09:45:11,21.2,13.4,7.7,31.9,32.7,112
2010-07-22 09:50:11,21.0,13.1,8.0,32.1,29.8,111
2010-07-22 09:55:11,20.9,16.2,4.7,32.2,25.2,111
2010-07-22 10:00:11,20.8,16.2,4.6,32.2,20.9,111
2010-07-22 10:05:11,20.7,12.7,8.0,32.5,15.2,112
2010-07-22 10:10:11,20.7,12.9,7.8,32.5,10.3,111
2010-07-22 10:15:11,20.8,12.6,8.2,32.5,6.7,111
2010-07-22 10:20:11,20.9,6.0,14.9,32.6,2.3,111
2010-07-22 10:25:11,21.3,5.5,15.8,32.5,2.3,112
2010-07-22 10:30:11,21.8,3.2,18.5,32.6,2.3,111
2010-07-22 10:35:11,25.2,-0.2,25.5,32.6,2.1,112
2010-07-22 10:40:11,28.1,-1.5,29.6,32.6,1.4,111
2010-07-22 10:45:11,29.3,0.7,28.6,32.6,2.0,111
2010-07-22 10:50:11,30.1,7.1,23.0,32.6,2.3,112
2010-07-22 10:55:11,30.2,6.8,23.4,32.5,2.4,111
2010-07-22 11:00:11,29.4,7.6,21.9,32.5,2.3,111
2010-07-22 11:05:11,28.7,7.0,21.8,32.5,2.2,112
2010-07-22 11:10:11,25.8,11.4,14.5,32.6,1.6,111
2010-07-22 11:15:11,25.4,9.5,15.9,32.6,1.6,112
2010-07-22 11:20:11,25.0,9.6,15.3,32.6,1.5,111
2010-07-22 11:25:11,24.8,9.6,15.2,32.6,1.3,112
2010-07-22 11:30:11,24.6,9.0,15.5,32.6,1.2,111
2010-07-22 11:35:11,24.6,6.1,18.5,32.6,1.2,111
2010-07-22 11:40:11,26.1,8.2,17.9,32.6,1.5,112
2010-07-22 11:45:11,28.2,2.9,25.3,32.6,2.2,111
2010-07-22 11:50:11,30.3,-1.8,32.1,32.6,2.5,112
2010-07-22 11:55:11,31.3,-1.1,32.4,32.6,2.4,111
2010-07-22 12:00:11,32.0,-0.6,32.6,32.6,2.3,112
2010-07-22 12:05:11,32.2,-2.9,35.0,32.6,2.3,111
2010-07-22 12:10:11,31.6,0.1,31.5,32.6,2.3,112
2010-07-22 12:15:11,30.9,-1.8,32.8,32.6,2.3,112
2010-07-22 12:20:11,31.1,3.9,27.2,32.6,2.3,111
2010-07-22 12:25:11,31.5,1.4,30.2,32.6,2.3,112
2010-07-22 12:30:11,31.9,2.5,29.4,32.6,2.3,111
2010-07-22 12:35:11,31.6,5.6,26.0,32.6,2.3,111
2010-07-22 12:40:11,31.9,3.0,28.8,32.6,2.3,112
2010-07-22 12:45:11,31.7,1.8,29.9,32.6,2.3,111
2010-07-22 12:50:11,31.2,8.7,22.5,32.6,2.3,112
2010-07-22 12:55:11,30.5,7.8,22.7,32.6,2.3,111
2010-07-22 13:00:11,30.3,7.8,22.6,32.5,2.3,112
2010-07-22 13:05:11,30.4,5.8,24.6,32.6,2.4,111
2010-07-22 13:10:11,30.8,5.1,25.7,32.6,2.3,112
2010-07-22 13:15:11,31.7,5.6,26.0,32.6,2.3,111
2010-07-22 13:20:11,31.6,6.7,25.0,32.6,2.3,112
2010-07-22 13:25:11,31.1,7.7,23.4,32.6,2.3,111
2010-07-22 13:30:11,29.0,11.2,17.8,32.6,2.5,112
2010-07-22 13:35:11,28.3,7.7,20.7,32.6,2.6,111
2010-07-22 13:40:11,29.5,9.5,20.0,32.6,2.7,111
2010-07-22 13:45:11,31.2,8.2,23.0,32.6,2.4,112
2010-07-22 13:50:11,33.2,7.2,26.0,32.6,2.4,111
2010-07-22 13:55:11,34.0,7.0,27.0,32.6,2.4,112
2010-07-22 14:00:11,34.7,2.8,31.8,32.6,2.4,111
2010-07-22 14:05:11,34.9,4.8,30.1,32.6,2.4,111
2010-07-22 14:10:11,35.0,6.4,28.6,32.6,2.3,112
2010-07-22 14:15:11,34.3,5.8,28.5,32.6,2.3,111
2010-07-22 14:20:11,33.5,6.3,27.2,32.6,2.3,111
2010-07-22 14:25:11,32.7,11.0,21.7,32.6,2.4,112
2010-07-22 14:30:11,34.5,8.7,25.8,32.6,2.4,111
2010-07-22 14:35:11,35.5,4.8,30.7,32.6,2.4,112
2010-07-22 14:40:11,35.4,3.7,31.7,32.6,2.4,111
2010-07-22 14:45:11,34.9,6.3,28.6,32.6,2.4,111
2010-07-22 14:50:11,34.7,7.0,27.7,32.6,2.3,112
2010-07-22 14:55:11,34.9,7.1,27.8,32.6,2.4,111
2010-07-22 15:00:11,35.7,9.7,26.0,32.6,2.4,111
2010-07-22 15:05:11,36.2,3.2,33.0,32.6,2.3,112
2010-07-22 15:10:11,35.2,7.5,27.7,32.6,2.3,111
2010-07-22 15:15:11,34.0,7.6,26.4,32.6,2.3,112
2010-07-22 15:20:11,33.0,6.7,26.3,32.6,2.3,111
2010-07-22 15:25:11,33.4,4.4,29.0,32.6,2.3,112
2010-07-22 15:30:11,33.4,7.4,26.0,32.6,2.4,111
2010-07-22 15:35:11,33.7,7.9,25.8,32.6,2.4,111
2010-07-22 15:40:11,34.0,7.2,26.8,32.6,2.3,112
2010-07-22 15:45:11,33.0,5.5,27.5,32.6,2.3,111
2010-07-22 15:50:11,32.1,9.3,22.8,32.6,2.3,111
2010-07-22 15:55:11,31.4,9.8,21.6,32.6,2.3,112
2010-07-22 16:00:11,30.9,11.3,19.6,32.6,2.3,111
2010-07-22 16:05:11,28.2,10.2,18.0,32.5,2.4,112
2010-07-22 16:10:11,26.4,10.7,15.7,32.5,2.5,111
2010-07-22 16:15:11,25.8,9.6,16.2,32.5,2.3,112
2010-07-22 16:20:11,25.6,7.6,18.0,32.6,2.3,112
2010-07-22 16:25:11,26.7,4.8,21.9,32.6,2.4,111
2010-07-22 16:30:11,29.9,2.8,27.1,32.6,2.5,111
2010-07-22 16:35:11,31.2,2.3,28.9,32.6,2.3,112
2010-07-22 16:40:11,31.5,2.7,28.8,32.6,2.3,111
2010-07-22 16:45:11,31.1,5.3,25.8,32.6,2.3,111
2010-07-22 16:50:11,30.9,6.1,24.8,32.6,2.3,112
2010-07-22 16:55:11,31.3,8.3,23.0,32.6,2.4,111
2010-07-22 17:00:11,32.4,7.6,24.8,32.6,2.4,112
2010-07-22 17:05:11,33.4,6.8,26.6,32.6,2.3,111
2010-07-22 17:10:11,32.6,6.5,26.1,32.6,2.3,112
2010-07-22 17:15:11,32.5,6.0,26.5,32.6,2.3,111
2010-07-22 17:20:11,32.7,1.0,31.6,32.6,2.3,112
2010-07-22 17:25:11,32.8,0.9,31.8,32.6,2.3,111
2010-07-22 17:30:11,33.0,-0.3,33.4,32.6,2.3,112
2010-07-22 17:35:11,33.3,-1.1,34.3,32.6,2.3,111
2010-07-22 17:40:11,33.5,-1.7,35.2,32.6,2.3,112
2010-07-22 17:45:11,33.7,-1.2,34.9,32.6,2.3,112
2010-07-22 17:50:11,33.9,-0.9,34.7,32.6,2.3,112
2010-07-22 17:55:11,33.5,-0.3,33.8,32.6,2.4,111
2010-07-22 18:00:11,33.6,0.6,33.0,32.5,2.3,111
2010-07-22 18:05:11,32.6,1.0,31.6,32.5,2.3,112
2010-07-22 18:10:11,31.8,0.8,31.0,32.5,2.3,111
2010-07-22 18:15:11,31.0,2.3,28.6,32.5,2.3,111
2010-07-22 18:20:11,30.7,1.7,28.9,32.5,2.3,111
2010-07-22 18:25:11,30.5,1.7,28.8,32.5,2.3,112
2010-07-22 18:30:11,30.3,-0.0,30.3,32.5,2.3,111
2010-07-22 18:35:11,30.1,-2.2,32.4,32.5,2.3,112
2010-07-22 18:40:11,30.3,-3.0,33.3,32.5,2.3,111
2010-07-22 18:45:11,30.5,-3.2,33.7,32.6,2.3,112
2010-07-22 18:50:11,30.7,-2.8,33.5,32.6,2.3,111
2010-07-22 18:55:11,31.2,-1.6,32.8,32.6,2.3,112
2010-07-22 19:00:11,30.9,-4.4,35.3,32.5,2.3,112
2010-07-22 19:05:11,30.8,-4.8,35.5,32.4,2.3,111
2010-07-22 19:10:11,30.1,-3.4,33.5,32.5,2.3,112
2010-07-22 19:15:11,30.2,-4.7,34.9,32.5,2.3,111
2010-07-22 19:20:11,30.0,-4.7,34.6,32.5,2.3,112
2010-07-22 19:25:11,30.1,-3.3,33.4,32.6,2.3,112
2010-07-22 19:30:11,30.6,-5.2,35.8,32.5,2.3,112
2010-07-22 19:35:11,30.4,-4.9,35.3,32.5,2.3,111
2010-07-22 19:40:11,30.2,-5.2,35.4,32.5,2.3,112
2010-07-22 19:45:11,30.1,-4.6,34.8,32.5,2.3,112
2010-07-22 19:50:11,30.4,-4.8,35.2,32.5,2.3,111
2010-07-22 19:55:11,30.7,-5.0,35.6,32.5,2.3,112
2010-07-22 20:00:11,30.8,-5.1,35.8,32.5,2.3,111
2010-07-22 20:05:11,30.7,-5.2,35.9,32.5,2.3,111
2010-07-22 20:10:11,30.6,-5.0,35.7,32.5,2.3,112
2010-07-22 20:15:11,30.6,-5.4,36.0,32.4,2.3,111
2010-07-22 20:20:11,30.4,-5.9,36.3,32.4,2.3,112
2010-07-22 20:25:11,30.0,-6.0,36.0,32.3,2.3,111
2010-07-22 20:30:11,29.6,-5.8,35.4,32.2,2.7,111
2010-07-22 20:35:11,29.2,-5.6,34.9,32.1,2.5,112
2010-07-22 20:40:11,28.9,-5.7,34.5,32.0,2.3,111
2010-07-22 20:45:11,28.5,-5.9,34.5,31.9,2.3,111
2010-07-22 20:50:11,28.0,-6.2,34.2,31.7,2.1,111
2010-07-22 20:55:11,27.6,-6.0,33.6,31.6,1.8,112
2010-07-22 21:00:11,27.2,-6.2,33.4,31.3,1.6,111
2010-07-22 21:05:11,26.9,-6.5,33.4,31.0,1.5,112
2010-07-22 21:10:11,26.7,-6.4,33.1,30.5,1.3,112
2010-07-22 21:15:11,26.5,-6.3,32.7,29.7,1.1,111
2010-07-22 21:20:11,26.4,-5.9,32.3,28.6,1.1,112
2010-07-22 21:25:11,26.4,-6.0,32.4,26.6,1.1,111
2010-07-22 21:30:11,26.4,-6.2,32.5,23.6,1.2,112
2010-07-22 21:35:11,25.8,-5.8,31.6,19.5,1.2,111
2010-07-22 21:40:11,26.3,-5.7,32.0,15.0,1.3,111
2010-07-22 21:45:11,26.3,-4.9,31.2,10.9,1.4,112
2010-07-22 21:50:11,26.4,-4.5,30.9,7.5,1.4,111
2010-07-22 21:55:11,26.3,-5.8,32.1,4.9,1.2,111
2010-07-22 22:00:11,26.2,-6.1,32.3,3.1,1.6,112
2010-07-22 22:05:11,26.1,-6.3,32.4,2.0,1.4,112
2010-07-22 22:10:11,26.1,-5.9,32.0,1.3,1.5,111
2010-07-22 22:15:11,26.1,-6.0,32.1,0.9,1.3,112
2010-07-22 22:20:11,26.0,-6.9,32.9,0.6,1.8,111
2010-07-22 22:25:11,26.0,-6.9,32.9,0.4,2.3,112
2010-07-22 22:30:11,26.0,-6.3,32.3,0.3,2.3,112
2010-07-22 22:35:11,25.9,-5.9,31.9,0.3,2.3,111
2010-07-22 22:40:11,26.0,-6.0,32.0,0.3,2.3,112
2010-07-22 22:45:11,26.0,-6.1,32.0,0.3,2.3,111
2010-07-22 22:50:11,25.9,-5.9,31.8,0.3,2.3,112
2010-07-22 22:55:11,25.8,-5.4,31.3,0.2,2.3,111
2010-07-22 23:00:11,25.8,-5.8,31.6,0.2,2.3,111
2010-07-22 23:05:11,25.7,-5.9,31.6,0.2,2.3,112
2010-07-22 23:10:11,25.7,-6.2,31.8,0.2,2.3,111
2010-07-22 23:15:11,25.6,-6.3,31.9,0.2,2.3,112
2010-07-22 23:20:11,25.6,-6.3,31.8,0.2,2.3,112
2010-07-22 23:25:11,25.1,-5.9,31.0,0.1,2.3,111
2010-07-22 23:30:11,25.6,-6.1,31.7,0.1,2.3,112
2010-07-22 23:35:11,25.6,-6.2,31.8,0.3,2.3,111
2010-07-22 23:40:11,25.5,-6.9,32.4,0.2,2.3,112
2010-07-22 23:45:11,25.4,-6.1,31.5,0.2,2.3,112
2010-07-22 23:50:11,25.4,-6.0,31.4,0.3,2.3,111
2010-07-22 23:55:11,25.3,-6.3,31.6,0.3,2.3,112
